Wind_Speed
6 6 6 6 5 4 4 3 3 3 2 2 3 3 4 5 5 5 6 7 7 8 8 9 9 10 10 11 11 11 12 12 12 12 13 13 13 13 13 13 13 13 13 13 14 14 14 15 15
6 6 6 5 5 4 3 3 3 3 3 3 3 3 4 4 5 6 6 7 8 8 9 9 10 11 11 11 12 12 13 13 13 13 13 13 13 13 13 13 13 13 13 13 13 14 14 15 15
5 6 6 5 5 4 4 4 3 4 4 4 5 5 5 5 6 7 8 9 9 10 10 11 11 12 12 12 13 13 14 14 14 14 14 13 13 13 13 12 12 12 12 12 13 13 14 14 14
5 5 5 5 5 5 5 5 4 5 5 6 6 7 7 7 8 8 9 10 11 11 12 12 13 13 14 14 14 14 14 15 14 14 13 13 13 13 13 12 12 12 13 13 13 13 13 14 14
5 6 6 6 5 5 5 6 6 6 7 7 8 9 9 9 9 9 10 11 12 13 13 14 14 14 15 15 15 15 15 15 14 14 14 13 13 13 13 13 13 13 13 13 13 13 13 14 14
6 6 7 7 7 6 6 6 7 8 8 9 9 10 12 11 10 11 12 13 13 14 14 15 15 15 16 16 16 16 15 15 15 14 14 14 14 13 14 13 13 13 14 14 14 14 15 15 15
8 8 8 8 8 8 8 8 9 9 9 10 10 11 13 12 11 12 13 14 15 15 15 15 16 16 16 16 17 17 16 16 15 15 15 15 14 14 14 14 14 15 15 15 15 16 16 16 17
11 11 11 10 10 11 10 10 11 11 11 11 10 11 13 13 13 13 14 15 15 16 16 16 17 17 18 18 18 18 17 17 17 16 16 16 16 16 16 16 16 16 16 16 17 17 17 17 18
13 13 13 12 12 13 12 12 12 12 13 12 11 11 12 14 14 15 15 16 16 17 17 17 18 18 18 19 19 18 18 18 18 18 18 18 18 18 18 18 18 18 18 18 19 19 19 20 20
16 16 16 15 14 14 15 14 14 14 15 14 12 12 13 15 16 16 16 17 17 17 18 18 19 19 19 20 20 20 20 20 20 20 20 20 20 20 20 21 21 21 21 21 21 22 22 23 23
18 19 19 18 17 17 17 17 17 16 17 16 14 14 15 16 18 18 18 18 18 19 20 20 20 21 21 21 22 22 22 22 23 23 22 23 23 23 23 23 24 24 24 25 25 25 26 26 27
20 21 21 20 19 19 19 19 19 19 17 16 16 16 17 18 19 19 19 19 19 20 22 22 22 22 23 23 24 24 25 25 25 25 25 26 26 26 27 27 27 27 28 28 29 29 30 30 31
21 22 23 22 21 21 21 21 20 20 17 17 18 18 19 19 20 20 20 20 20 22 23 23 23 24 25 25 26 27 27 28 28 28 29 29 29 30 30 30 31 31 32 32 33 33 34 34 35
22 23 23 23 22 21 22 23 21 19 18 19 19 20 20 20 20 21 21 21 21 22 23 24 25 25 26 27 28 29 30 30 30 31 31 32 32 33 33 34 34 35 36 36 37 37 38 38 39
23 23 24 23 22 22 22 23 21 19 19 20 20 20 20 20 21 21 22 22 22 23 24 25 25 26 27 28 29 30 31 31 32 33 33 34 35 36 37 37 38 39 40 40 40 41 41 42 43
23 23 23 23 22 21 21 23 22 19 19 20 20 20 21 21 21 22 22 22 22 23 23 25 25 26 27 28 29 30 31 32 33 34 35 36 37 38 39 40 41 42 43 43 44 44 45 45 46
22 21 22 22 20 20 20 21 22 19 19 20 21 21 21 22 22 22 22 22 22 23 23 24 25 26 28 29 29 30 31 33 34 35 36 38 39 40 41 41 43 45 45 46 46 47 48 49 50
21 20 21 21 19 19 18 18 20 20 20 20 21 21 22 22 22 22 23 23 23 23 23 24 25 26 27 28 30 31 32 33 34 36 37 39 40 41 42 43 44 46 47 48 49 50 51 51 52
20 20 20 20 18 18 18 18 19 19 20 20 20 21 21 21 22 22 23 23 23 24 24 25 25 26 27 28 29 30 32 33 35 36 38 39 41 43 44 44 45 47 48 49 51 52 53 53 55
20 19 20 20 19 18 17 17 18 19 19 20 20 21 21 22 22 23 24 24 24 25 25 26 27 27 28 29 30 31 32 33 35 37 39 40 42 43 44 45 47 48 50 51 52 54 55 56 57
20 19 18 19 20 19 18 17 18 19 20 20 21 22 22 23 23 24 25 25 25 26 27 27 28 29 29 30 31 32 33 35 36 38 40 41 43 44 46 47 49 50 51 52 54 56 57 58 59
19 19 19 19 19 19 19 18 18 19 20 21 22 22 23 24 25 25 26 27 27 27 28 29 29 30 30 31 32 32 34 35 36 38 40 42 43 45 47 48 50 52 53 54 56 58 59 60 61
20 20 20 19 20 19 20 20 19 20 21 22 22 23 24 25 26 26 27 28 28 29 29 29 30 30 31 31 32 33 34 35 37 38 40 42 44 45 47 49 51 52 54 55 57 59 60 62 63
21 21 21 20 20 20 20 21 21 21 22 22 23 24 26 26 27 28 28 29 29 29 29 29 29 30 31 32 33 34 35 36 38 40 41 43 45 47 49 51 52 54 55 57 59 61 62 64 65
22 22 22 22 21 21 21 22 23 22 23 23 25 26 27 27 27 28 29 29 29 29 29 29 30 31 32 33 34 36 37 38 40 42 43 45 47 49 52 54 56 58 59 61 63 64 66 67 68
23 23 24 24 23 22 23 24 24 24 25 26 27 27 28 27 27 28 29 29 29 30 31 32 33 33 34 35 37 38 40 42 43 45 47 49 51 54 56 58 60 62 64 66 67 69 70 71 72
24 24 24 26 26 25 24 24 25 25 27 28 28 29 28 28 27 28 29 31 31 32 33 34 34 35 37 38 40 42 44 46 48 50 52 54 56 59 61 63 65 67 69 70 72 73 74 75 76
25 25 26 27 29 28 26 24 26 27 28 29 29 29 29 28 29 30 32 33 34 35 35 36 37 38 40 42 44 46 48 50 53 55 58 60 63 65 67 69 70 72 74 75 77 78 78 79 79
27 27 28 29 30 30 28 25 27 28 29 30 30 30 30 30 32 34 35 36 37 37 38 39 41 42 44 47 49 51 54 56 59 61 64 66 68 71 73 74 76 78 79 80 81 82 82 82 82
29 29 30 31 31 31 31 28 28 29 30 31 31 31 32 33 35 36 37 38 39 40 41 43 44 47 49 52 54 56 59 61 64 66 69 71 74 76 78 80 82 83 84 85 85 84 84 84 83
Wind_Direction
49 51 52 49 47 39 25 13 360 347 316 276 246 234 233 233 231 235 237 241 245 247 249 251 252 253 254 256 259 260 261 262 264 266 267 267 268 269 270 270 270 270 269 268 268 267 267 265 262
43 43 39 38 35 28 14 0 349 334 314 294 272 253 244 243 240 237 241 245 249 252 253 254 256 258 260 261 261 262 264 265 267 268 269 269 269 270 271 271 271 271 271 271 270 269 268 267 265
30 29 27 26 22 9 358 345 337 323 305 291 280 271 262 254 250 248 249 251 253 255 256 258 260 261 262 262 263 264 266 268 269 270 270 269 269 270 271 271 272 273 273 273 273 272 271 270 268
6 8 7 7 3 356 344 334 323 310 299 290 283 277 269 263 259 257 255 256 257 258 259 260 262 263 264 264 265 266 267 269 270 270 271 271 271 272 272 272 273 274 275 275 275 274 274 273 272
338 343 347 348 345 340 330 321 314 303 295 288 284 279 275 272 265 262 261 260 260 260 260 261 262 264 264 265 265 266 267 268 269 269 270 270 271 272 272 273 274 274 275 275 275 275 275 275 274
319 323 327 328 327 323 320 313 307 302 298 291 285 281 280 280 273 268 266 264 264 263 262 263 263 263 263 263 264 266 266 267 267 268 269 270 271 271 272 273 274 274 275 275 275 276 276 276 276
302 308 311 313 313 313 312 309 304 302 299 293 288 282 284 288 284 277 272 268 267 266 265 264 264 265 264 264 264 265 265 266 266 267 268 268 269 270 271 272 273 273 274 275 275 276 277 278 278
293 298 300 303 307 307 310 309 306 305 302 301 295 287 284 287 286 281 276 272 269 268 268 266 265 265 265 265 264 264 264 264 265 265 266 266 267 268 269 270 271 271 272 273 274 275 277 278 278
286 290 293 297 300 302 305 306 305 305 302 303 302 291 285 284 283 281 279 276 273 271 269 267 266 265 265 265 264 263 263 264 264 265 265 265 266 266 267 268 269 269 270 271 273 274 275 277 278
281 284 288 292 294 298 300 301 301 302 300 303 303 294 287 283 282 281 280 278 275 273 271 268 266 265 265 264 263 263 263 263 264 264 264 265 265 266 267 267 268 268 269 270 271 273 274 276 277
278 281 285 287 290 293 295 296 297 297 298 301 300 294 288 283 281 281 281 279 277 274 271 270 268 267 265 264 264 263 263 263 263 263 264 264 265 266 266 267 267 268 268 270 271 272 274 275 276
277 280 283 285 287 289 290 292 294 295 297 299 294 289 284 281 280 279 280 278 276 273 272 271 270 269 268 266 265 264 264 263 263 264 264 264 265 265 266 267 268 269 269 270 272 273 274 275 276
276 278 281 283 286 287 289 289 291 294 299 293 287 285 283 282 281 280 278 277 275 274 274 274 273 270 269 268 266 265 265 265 265 266 266 266 266 266 267 268 269 270 271 272 273 274 275 276 277
276 277 279 282 284 285 286 288 291 295 293 287 286 286 286 285 285 283 281 279 277 276 276 275 274 273 272 270 268 267 267 267 268 268 268 268 268 268 268 269 270 271 272 273 274 275 276 277 278
276 277 278 280 282 283 284 285 290 292 289 288 288 288 287 287 286 285 284 282 279 278 277 276 276 275 274 273 271 271 270 270 270 270 270 270 270 270 270 271 272 272 273 274 275 276 277 277 278
276 277 278 280 281 282 282 284 288 290 289 288 289 290 290 289 289 287 285 284 281 280 278 278 277 276 276 275 274 274 273 273 272 272 272 272 272 272 273 273 274 274 275 276 277 277 278 278 279
275 276 278 280 281 282 282 284 289 291 289 288 289 290 290 290 289 288 287 286 284 282 280 279 278 278 278 277 276 275 275 274 274 274 273 273 274 274 275 275 275 276 277 278 278 278 278 279 279
274 276 277 279 282 282 282 283 286 288 287 287 288 289 289 290 290 290 290 289 287 285 283 281 280 279 279 279 278 278 277 277 277 276 276 276 276 277 277 277 278 278 279 279 280 280 280 280 280
274 275 276 278 278 280 281 282 282 284 285 285 286 287 288 288 290 291 291 290 289 287 286 284 283 282 282 281 281 280 280 280 279 279 279 279 280 280 281 281 281 281 281 281 282 282 281 281 281
273 274 275 277 278 279 280 280 280 281 283 284 285 286 287 288 290 291 291 291 290 289 288 287 286 285 284 283 283 282 282 282 281 281 281 282 282 283 284 284 283 283 283 283 283 283 282 282 281
270 271 273 276 280 281 280 280 281 281 282 284 285 286 287 289 290 290 290 290 290 290 289 289 288 288 287 287 286 285 284 283 283 283 284 284 284 284 285 285 285 284 284 284 284 283 283 283 282
271 272 273 275 278 281 283 283 282 282 283 285 286 286 288 289 290 290 289 289 289 290 290 290 290 290 290 289 288 288 287 286 286 285 285 285 285 285 285 285 284 285 285 285 284 284 284 283 283
271 273 275 275 276 280 283 284 283 284 285 286 286 287 288 289 289 289 289 289 290 291 291 292 292 292 292 292 291 290 289 289 288 288 287 287 287 287 286 286 286 286 285 285 284 284 283 283 283
271 273 274 275 277 281 283 285 286 288 288 286 286 286 288 289 289 289 289 290 291 292 293 293 293 293 293 293 293 293 292 291 291 290 289 289 289 288 288 288 287 287 287 286 285 284 284 284 283
271 273 275 275 277 280 283 285 288 290 287 286 286 287 288 289 290 290 291 291 292 293 294 294 294 294 295 295 295 295 294 293 293 292 291 291 290 290 289 289 289 288 287 287 286 285 285 284 283
270 272 276 279 280 282 284 287 290 290 288 287 287 288 290 290 290 291 291 291 292 293 294 294 295 295 295 296 296 296 295 295 294 293 293 292 292 291 291 290 290 289 288 288 287 286 285 284 283
270 272 276 280 281 283 285 288 288 288 288 288 288 289 290 290 290 290 291 292 293 294 295 296 296 296 297 297 297 297 296 296 295 295 294 294 293 293 292 291 291 290 289 288 287 286 285 284 283
270 273 277 280 283 284 284 287 288 288 287 287 288 289 290 291 291 291 292 293 295 296 297 297 298 298 298 299 299 299 298 298 297 297 296 295 295 294 293 292 291 290 289 288 287 286 285 283 282
272 275 277 280 282 285 286 287 289 288 287 286 288 290 291 291 292 293 294 295 297 298 298 298 299 300 300 300 300 300 300 299 299 298 298 297 296 295 294 293 292 291 290 289 288 286 285 283 282
272 275 277 279 282 284 286 291 290 287 286 286 288 290 291 292 293 294 295 297 298 298 299 300 301 301 301 301 301 301 301 301 300 300 299 298 297 296 295 294 293 292 291 290 288 287 285 284 282
Height
5862 5862 5862 5862 5863 5862 5861 5861 5861 5861 5860 5860 5860 5860 5860 5860 5861 5863 5862 5861 5861 5862 5862 5862 5862 5863 5863 5863 5863 5864 5864 5864 5864 5864 5864 5864 5863 5864 5864 5864 5864 5864 5865 5865 5865 5865 5865 5866 5866
5863 5863 5863 5863 5862 5862 5862 5861 5861 5861 5861 5860 5859 5859 5859 5859 5859 5860 5860 5859 5860 5860 5860 5861 5861 5861 5861 5861 5861 5861 5861 5861 5861 5861 5861 5861 5861 5861 5861 5861 5861 5861 5861 5861 5862 5862 5862 5862 5863
5863 5863 5864 5863 5862 5862 5862 5861 5861 5860 5860 5860 5859 5858 5858 5858 5858 5858 5858 5858 5858 5858 5858 5859 5859 5859 5859 5859 5859 5859 5859 5859 5859 5858 5858 5858 5858 5858 5858 5858 5858 5858 5858 5858 5859 5859 5859 5859 5859
5864 5864 5864 5864 5863 5862 5861 5861 5860 5859 5859 5859 5858 5858 5857 5857 5857 5857 5856 5856 5856 5856 5856 5856 5856 5856 5856 5856 5856 5856 5856 5856 5856 5855 5855 5855 5855 5855 5855 5855 5855 5855 5855 5855 5855 5856 5856 5856 5856
5864 5864 5864 5863 5862 5861 5861 5860 5859 5859 5858 5858 5858 5857 5856 5856 5855 5855 5854 5854 5854 5854 5854 5854 5854 5854 5854 5854 5854 5853 5853 5853 5853 5853 5852 5852 5852 5852 5852 5852 5852 5852 5852 5852 5852 5852 5853 5853 5853
5864 5863 5863 5862 5861 5860 5860 5859 5858 5858 5857 5857 5856 5855 5854 5854 5853 5853 5852 5852 5852 5852 5852 5852 5851 5851 5851 5851 5851 5851 5850 5850 5850 5850 5850 5849 5849 5849 5849 5849 5849 5849 5849 5849 5849 5849 5849 5849 5849
5863 5862 5862 5861 5860 5859 5859 5858 5857 5856 5856 5855 5854 5853 5852 5851 5851 5850 5850 5849 5849 5849 5849 5849 5849 5848 5848 5848 5848 5848 5848 5847 5847 5847 5847 5847 5846 5846 5846 5846 5846 5846 5846 5846 5846 5846 5846 5846 5846
5861 5862 5860 5859 5858 5858 5857 5856 5855 5855 5854 5853 5852 5852 5850 5849 5848 5847 5847 5846 5846 5846 5846 5846 5846 5845 5845 5845 5845 5845 5844 5844 5844 5844 5844 5844 5843 5843 5843 5843 5843 5843 5843 5842 5842 5842 5842 5842 5841
5859 5860 5858 5857 5857 5856 5855 5854 5854 5853 5852 5851 5850 5849 5848 5847 5845 5844 5844 5843 5843 5842 5842 5842 5842 5842 5842 5842 5841 5841 5841 5841 5840 5840 5840 5840 5840 5840 5839 5839 5839 5839 5839 5839 5838 5838 5838 5837 5837
5857 5857 5856 5855 5855 5854 5852 5852 5851 5850 5849 5849 5848 5847 5845 5844 5842 5841 5840 5840 5839 5839 5839 5838 5838 5838 5838 5838 5838 5837 5837 5837 5837 5836 5836 5836 5836 5836 5835 5835 5835 5835 5834 5834 5834 5833 5833 5833 5832
5853 5853 5853 5852 5852 5851 5850 5848 5848 5847 5846 5846 5845 5843 5842 5841 5839 5838 5837 5837 5836 5835 5834 5834 5834 5834 5834 5833 5833 5833 5833 5832 5832 5832 5832 5832 5831 5831 5831 5830 5830 5830 5829 5829 5829 5828 5828 5827 5827
5850 5849 5849 5848 5848 5847 5846 5845 5844 5843 5843 5842 5841 5840 5838 5837 5835 5834 5834 5833 5832 5831 5830 5830 5829 5829 5829 5829 5828 5828 5827 5827 5827 5827 5827 5826 5826 5825 5825 5825 5824 5824 5823 5823 5823 5822 5821 5821 5820
5846 5845 5845 5844 5844 5843 5842 5841 5840 5840 5840 5838 5836 5835 5834 5833 5831 5830 5830 5829 5827 5826 5825 5825 5825 5824 5824 5823 5823 5822 5822 5822 5821 5821 5821 5820 5820 5819 5819 5819 5818 5817 5817 5816 5816 5815 5814 5813 5813
5842 5841 5840 5840 5840 5839 5838 5836 5837 5837 5836 5833 5832 5831 5830 5828 5827 5826 5825 5824 5823 5822 5821 5820 5819 5819 5818 5818 5817 5816 5816 5816 5815 5815 5814 5814 5813 5813 5812 5812 5811 5810 5809 5809 5808 5807 5807 5806 5804
5837 5837 5836 5835 5835 5835 5834 5833 5833 5832 5831 5829 5828 5827 5825 5824 5823 5821 5820 5819 5818 5817 5816 5815 5814 5813 5812 5812 5811 5810 5810 5809 5809 5808 5807 5807 5806 5805 5804 5804 5803 5802 5801 5801 5800 5799 5798 5797 5795
5833 5833 5832 5831 5831 5831 5831 5829 5828 5828 5827 5825 5823 5822 5821 5819 5818 5817 5815 5814 5813 5812 5811 5810 5808 5807 5806 5806 5805 5804 5803 5803 5802 5801 5800 5799 5798 5797 5796 5795 5794 5793 5792 5792 5791 5789 5788 5787 5785
5829 5829 5827 5827 5827 5826 5826 5825 5823 5823 5822 5821 5819 5818 5816 5815 5814 5812 5811 5809 5808 5807 5806 5805 5803 5802 5801 5800 5799 5798 5797 5795 5794 5793 5792 5791 5789 5788 5787 5786 5785 5783 5782 5781 5780 5779 5778 5776 5775
5825 5824 5823 5823 5823 5822 5822 5821 5820 5819 5818 5816 5815 5813 5812 5811 5809 5808 5806 5805 5803 5802 5801 5799 5798 5796 5795 5794 5792 5791 5790 5788 5787 5785 5784 5782 5781 5779 5778 5777 5776 5774 5772 5771 5769 5768 5766 5765 5763
5821 5820 5820 5819 5819 5819 5818 5818 5816 5815 5814 5812 5811 5810 5808 5806 5805 5803 5801 5800 5798 5797 5795 5794 5793 5791 5789 5788 5786 5785 5783 5781 5780 5777 5776 5774 5772 5770 5769 5768 5766 5764 5762 5760 5758 5756 5754 5752 5749
5816 5816 5816 5815 5814 5815 5814 5814 5813 5811 5810 5809 5807 5806 5804 5802 5801 5799 5797 5795 5793 5792 5790 5788 5787 5785 5783 5782 5780 5778 5776 5774 5772 5770 5767 5765 5763 5761 5759 5757 5755 5753 5751 5749 5746 5743 5741 5739 5736
5812 5812 5812 5811 5810 5810 5811 5811 5809 5807 5806 5804 5803 5801 5800 5798 5796 5795 5793 5790 5788 5786 5784 5782 5780 5779 5777 5775 5773 5771 5769 5767 5764 5762 5760 5757 5754 5752 5749 5747 5744 5742 5739 5737 5734 5730 5727 5725 5722
5808 5808 5808 5807 5806 5806 5807 5806 5805 5803 5802 5800 5798 5797 5795 5793 5792 5790 5787 5785 5783 5781 5778 5776 5774 5772 5770 5768 5766 5764 5762 5759 5757 5754 5751 5748 5745 5742 5739 5736 5733 5730 5727 5724 5721 5717 5713 5710 5707
5804 5803 5803 5803 5802 5802 5802 5801 5801 5799 5797 5796 5794 5792 5790 5788 5786 5784 5782 5780 5777 5775 5773 5770 5768 5766 5763 5761 5759 5756 5754 5751 5749 5746 5743 5739 5736 5732 5729 5725 5722 5718 5715 5711 5707 5703 5699 5695 5691
5799 5799 5799 5798 5798 5799 5797 5796 5796 5794 5792 5790 5789 5786 5784 5783 5780 5778 5776 5773 5771 5769 5766 5764 5761 5759 5756 5754 5751 5749 5746 5743 5740 5736 5733 5730 5726 5722 5718 5713 5709 5705 5701 5697 5693 5688 5684 5680 5676
5795 5795 5795 5794 5794 5794 5792 5791 5791 5789 5787 5785 5783 5781 5779 5777 5774 5772 5769 5767 5765 5762 5760 5757 5755 5752 5749 5746 5743 5740 5737 5734 5730 5726 5723 5719 5715 5710 5705 5700 5696 5691 5686 5682 5677 5672 5667 5662 5658
5789 5790 5790 5789 5789 5788 5787 5786 5785 5783 5781 5779 5777 5775 5772 5770 5768 5765 5763 5760 5758 5756 5753 5750 5748 5745 5742 5739 5735 5732 5728 5724 5720 5716 5712 5707 5702 5697 5692 5687 5681 5676 5670 5665 5659 5654 5649 5644 5639
5784 5784 5784 5783 5782 5782 5782 5781 5779 5777 5774 5772 5770 5768 5766 5764 5761 5759 5756 5754 5751 5748 5746 5743 5740 5737 5733 5730 5726 5722 5717 5713 5709 5704 5699 5694 5688 5683 5677 5671 5665 5659 5652 5646 5640 5635 5629 5623 5618
5779 5779 5778 5777 5776 5775 5776 5775 5773 5770 5768 5766 5764 5761 5759 5757 5755 5752 5749 5746 5743 5740 5737 5734 5731 5728 5724 5720 5716 5711 5706 5701 5696 5690 5685 5679 5673 5666 5660 5653 5646 5639 5632 5625 5619 5613 5607 5601 5596
5773 5773 5772 5770 5770 5769 5768 5772 5767 5764 5761 5759 5757 5755 5753 5750 5747 5744 5741 5738 5735 5732 5728 5725 5721 5717 5713 5708 5704 5698 5693 5687 5681 5675 5668 5662 5655 5647 5640 5633 5625 5618 5610 5602 5595 5589 5583 5577 5572
5766 5766 5765 5765 5763 5762 5761 5766 5760 5756 5753 5752 5750 5748 5745 5742 5739 5736 5733 5729 5726 5722 5719 5715 5711 5706 5701 5696 5690 5685 5678 5672 5665 5658 5651 5643 5635 5627 5619 5611 5603 5594 5586 5578 5570 5563 5557 5551 5546